Home   Weather   Kortrijk   Past weeks

Flag for Belgium Past Weather in Kortrijk, Belgium — Yesterday and Last 2 Weeks

Now
61 °F

Clear.


Feels Like: 61 °F
Forecast: 59 / 71 °F
Wind: 6 mph from Southeast

Location: Lille Airport

Current Time: Aug 17, 2017 at 1:34:30 am

Latest Report: Aug 17, 2017 at 1:00 am


Visibility: 10 mi

Pressure: 30.04 "Hg

Humidity: 72%

Dew Point: 52 °F

Location of KortrijkLocation

Past Weather in Kortrijk — Graph

°F

Kortrijk Temperature Yesterday

Maximum temperature yesterday: 75 °F (at 4:30 pm)
Minimum temperature yesterday: 54 °F (at 6:00 am)
Average temperature yesterday: 65 °F

High & Low Weather Summary for the Past Weeks

 TemperatureHumidityPressure
High79 °F (Aug 14, 3:30 pm)100% (Aug 6, 6:30 am)30.24 "Hg (Aug 6, 6:30 am)
Low48 °F (Aug 7, 5:00 am)34% (Aug 7, 5:00 pm)29.77 "Hg (Aug 8, 9:30 am)
Average64 °F72%30.02 "Hg
* Reported Aug 2 12:00 am — Aug 17 12:30 am, Kortrijk. Weather by CustomWeather, © 2017

Note: Actual official high and low records may vary slightly from our data, if they occured in-between our weather recording intervals... More about our weather records

Advertising

Kortrijk Weather History for the Previous 24 Hours

Scroll right to see more
 ConditionsComfort  
Time TempWeatherWind HumidityBarometerVisibility
12:30 am
Thu, Aug 17
63 °FClear.6 mph68%30.07 "Hg10 mi
12:00 am63 °FClear.3 mph73%30.07 "Hg10 mi
11:30 pm
Wed, Aug 16
63 °FClear.5 mph73%30.07 "Hg10 mi
11:00 pm63 °FClear.3 mph73%30.07 "Hg10 mi
10:30 pm64 °FClear.5 mph68%30.07 "Hg10 mi
10:00 pm66 °FClear.5 mph64%30.09 "Hg10 mi
9:30 pm66 °FClear.3 mph64%30.09 "Hg10 mi
9:00 pm70 °FSunny.2 mph53%30.09 "Hg10 mi
8:30 pm72 °FSunny.No wind50%30.09 "Hg10 mi
8:00 pm73 °FSunny.3 mph47%30.09 "Hg10 mi
7:30 pm75 °FPassing clouds.5 mph44%30.09 "HgN/A
7:00 pm75 °FPassing clouds.9 mph44%30.09 "HgN/A
6:30 pm75 °FPassing clouds.8 mph44%30.12 "HgN/A
6:00 pm75 °FPassing clouds.8 mph41%30.12 "HgN/A
5:30 pm75 °FPassing clouds.6 mph39%30.12 "HgN/A
5:00 pm75 °FPassing clouds.8 mph36%30.12 "HgN/A
4:30 pm75 °FPartly sunny.6 mph41%30.12 "HgN/A
4:00 pm73 °FPassing clouds.6 mph44%30.12 "HgN/A
3:30 pm73 °FPassing clouds.3 mph44%30.12 "HgN/A
3:00 pm73 °FSunny.3 mph44%30.12 "Hg10 mi
2:30 pm72 °FPassing clouds.6 mph47%30.12 "HgN/A
2:00 pm72 °FPassing clouds.6 mph47%30.12 "HgN/A
1:30 pm70 °FPassing clouds.8 mph60%30.15 "HgN/A
1:00 pm68 °FPassing clouds.6 mph64%30.15 "HgN/A
12:30 pm68 °FPassing clouds.5 mph69%30.15 "HgN/A
12:00 pm68 °FPassing clouds.6 mph64%30.15 "HgN/A
11:30 am66 °FPassing clouds.5 mph73%30.15 "HgN/A
11:00 am66 °FPartly sunny.3 mph73%30.15 "HgN/A
10:30 am64 °FPassing clouds.5 mph83%30.15 "HgN/A
10:00 am63 °FPassing clouds.3 mph88%30.15 "HgN/A
9:30 am61 °FPassing clouds.3 mph88%30.15 "HgN/A
9:00 am59 °FPassing clouds.5 mph94%30.15 "HgN/A
8:30 am57 °FSunny.3 mph94%30.15 "Hg10 mi
8:00 am55 °FSunny.2 mph100%30.15 "Hg10 mi
7:30 am55 °FClear.1 mph94%30.12 "HgN/A
7:00 am54 °FLight fog.2 mph100%30.12 "Hg2 mi
6:30 am54 °FLight fog.2 mph94%30.12 "Hg1 mi
6:00 am54 °FFog.3 mph100%30.12 "Hg1 mi
5:30 am55 °FLight fog.3 mph94%30.12 "Hg2 mi
5:00 am55 °FLight fog.No wind94%30.12 "Hg6 mi
4:30 am55 °FClear.3 mph94%30.12 "HgN/A
4:00 am55 °FClear.2 mph100%30.12 "Hg10 mi
3:30 am57 °FClear.5 mph94%30.12 "Hg10 mi
3:00 am57 °FClear.2 mph94%30.12 "Hg10 mi
2:30 am57 °FClear.5 mph94%30.12 "Hg10 mi
2:00 am57 °FClear.5 mph94%30.12 "Hg10 mi
1:30 am59 °FClear.5 mph88%30.12 "Hg10 mi
1:00 am59 °FClear.5 mph88%30.12 "Hg10 mi
Weather by CustomWeather, © 2017

See weather overviewHow to use our weather pages